Regional Weather Roundup
Issued by NWS Northern Indiana

Home | Current Version | Previous Version | Text Only | Print | Product List | Glossary On
Versions: 1 2 3 4 5 6 7 8 9 10 11 12 13 14 15 16 17 18 19 20 21 22 23 24 25 26 27 28 29 30 31 32 33 34 35 36 37 38 39 40 41 42 43 44 45 46 47 48 49 50
000
ASUS43 KIWX 251601
RWRIWX

KIWX WEATHER ROUNDUP
NATIONAL WEATHER SERVICE NORTHERN INDIANA
1200 PM EDT SUN JUN 25 2017

NOTE: "FAIR" INDICATES FEW OR NO CLOUDS BELOW 12,000 FEET WITH NO
SIGNIFICANT WEATHER AND/OR OBSTRUCTIONS TO VISIBILITY.

* THESE STATIONS ARE NOT UNDER NWS QUALITY CONTROL. THEY ALSO MAY NOT
  REPORT WEATHER SUCH AS PRECIPITATION OR FOG.

INZ001>027-251700-
NORTHERN INDIANA

CITY           SKY/WX    TMP DP  RH WIND       PRES   REMARKS
GARY*          MOSUNNY   68  43  40 W20G32    30.12S
MICHIGAN CITY* MOSUNNY   66  48  52 W10G16    30.12S
KNOX*          PTSUNNY   68  36  30 W16G22    30.12R
SOUTH BEND     MOSUNNY   66  45  46 W17G26    30.10S
GOSHEN         PTSUNNY   66  45  46 W17       30.10S
MONTICELLO*    MOSUNNY   69  44  41 W16G23    30.14R
FORT WAYNE     MOSUNNY   67  48  50 W14G24    30.12R

$$
INZ028>050-251700-
CENTRAL INDIANA

CITY           SKY/WX    TMP DP  RH WIND       PRES   REMARKS
LAFAYETTE      SUNNY     69  48  47 W17G23    30.15R
KOKOMO*        SUNNY     68  46  45 W18G24    30.16R
MUNCIE*        SUNNY     70  48  45 W10G18    30.15R
INDIANAPOLIS   MOSUNNY   71  49  45 W14G20    30.16S

$$
MIZ043>046-050>051-056>058-064>065-071>073-077>080-251700-
SOUTHWEST LOWER MICHIGAN

CITY           SKY/WX    TMP DP  RH WIND       PRES   REMARKS
BATTLE CREEK   PTSUNNY   67  48  50 W15G26    30.06S
BENTON HARBOR  SUNNY     67  50  54 W18G25    30.09S
COLDWATER*     PTSUNNY   64  44  48 W16G22    30.08R
HILLSDALE*     PTSUNNY   64  45  48 W16G25    30.06S
HOLLAND        MOSUNNY   65  53  65 W20G25    30.07R
GRAND RAPIDS   PTSUNNY   65  51  60 W23G30    30.03R
KALAMAZOO      MOSUNNY   67  45  45 W14G25    30.07S
STURGIS*       PTSUNNY   65  49  55 W13G18    30.08S
THREE RIVERS*  FAIR      68  45  44 W13G26    30.08S

$$
OHZ001>008-015>018-024>025-251700-
NORTHWEST OHIO

CITY           SKY/WX    TMP DP  RH WIND       PRES   REMARKS
DEFIANCE       SUNNY     67  45  45 W14G24    30.09R
FINDLAY        SUNNY     71  45  39 W22       30.08R
TOLEDO EXPRESS MOSUNNY   67  46  47 W20G25    30.06R
TOLEDO METCALF SUNNY     70  48  45 W18G26    30.06R
LIMA           SUNNY     68  47  46 W20G25    30.11R

$$
AND FOR LAKE MICHIGAN COASTAL AND OPEN LAKE BUOY OBSERVATIONS

STATION/POSITION TEMP    WIND        PRES    VSBY  WAVE
                 AIR SEA DIR/SP/G                  HT/PER
                 (F)     (DEG/KT/KT) (MB)    (MI)  (FT/S)
CALUMET HARBOR    67     260/  7/ 15 1019.0R
MICHIGAN CITY     62     250/ 15/ 17   N/A
BURNS HARBOR      64     280/ 13/ 15 1020.0S
SOUTH LAKE BUOY   59 61  290/ 16/ 17 1018.0          3/ 5
4 MI NW BRIDGMAN  63 69  280/ 14/ 19 1019.4R         5/ 5
MICHIGAN CITY     63 67  270/ 14/ 17   N/A           3/ 4

$$
&&



USA.gov is the U.S. government's official web portal to all federal, state and local government web resources and services.